Retour au catalogue

STARLINK-2388

ActifCommunicationsVLEO
NORAD 47807·PAYLOAD·🇺🇸 United States

Lancé Mar 11, 2021 depuis Cape Canaveral Space Force Station

Loading…

Prochains Passages (prochaines 24 heures)

TLE

FraisSource: CelesTrak SupGP

Époque: Sep 14, 2026, 21:56 UTC

1 47807C 21018W   26257.91437500  .00050289  00000+0  16179-2 0  2575
2 47807  53.1597  56.0890 0001393  61.9661  27.6070 15.31662361    18

Suivez STARLINK-2388 en temps réel avec AllMySat

Download on the App Store